Regional Weather Roundup
Issued by NWS Little Rock, AR

Home | Current Version | Previous Version | Graphics & Text | Print | Product List | Glossary On
Versions: 1 2 3 4 5 6 7 8 9 10 11 12 13 14 15 16 17 18 19 20 21 22 23 24 25 26 27 28 29 30 31 32 33 34 35 36 37 38 39 40 41 42 43 44 45 46 47 48 49 50
000
ASUS44 KLZK 060605
RWRLZK

WEATHER ROUNDUP FOR ARKANSAS
NATIONAL WEATHER SERVICE LITTLE ROCK AR
100 AM CDT WED MAY 06 2015

NOTE: "FAIR" INDICATES FEW OR NO CLOUDS BELOW 12,000 FEET WITH NO
SIGNIFICANT WEATHER AND/OR OBSTRUCTIONS TO VISIBILITY.

ARZ001-003-010-029-060700-
NORTHWEST ARKANSAS

CITY           SKY/WX    TMP DP  RH WIND       PRES   REMARKS
FAYETTEVILLE   CLOUDY    72  56  57 SE15G23   30.04F
6HR MIN TEMP:  70; 6HR MAX TEMP:  75;

FORT SMITH     CLOUDY    73  53  49 E7        30.02S
6HR MIN TEMP:  70; 6HR MAX TEMP:  81;

HARRISON       PTCLDY    65  54  67 SE7       30.09F
6HR MIN TEMP:  64; 6HR MAX TEMP:  75;

BENTONVILLE    MOCLDY   N/A N/A N/A SE8       30.05R
ROGERS         CLOUDY    68  54  60 SE8       30.06S
6HR MIN TEMP:  68; 6HR MAX TEMP:  76;

SILOAM SPGS    MOCLDY    68  52  56 SE9       30.04F
6HR MIN TEMP:  66; 6HR MAX TEMP:  73;

$$

ARZ004-005-016-060700-
NORTH CENTRAL ARKANSAS

CITY           SKY/WX    TMP DP  RH WIND       PRES   REMARKS
BATESVILLE     CLEAR     70  52  52 E6        30.12S
6HR MIN TEMP:  68; 6HR MAX TEMP:  81;

FLIPPIN        PTCLDY    66  52  59 E5        30.09S
6HR MIN TEMP:  66; 6HR MAX TEMP:  79;

MTN HOME       PTCLDY    66  52  60 SE5       30.10F
6HR MIN TEMP:  66; 6HR MAX TEMP:  77;

$$

ARZ040-041-060700-
WEST CENTRAL ARKANSAS

CITY           SKY/WX    TMP DP  RH WIND       PRES   REMARKS
MENA           CLOUDY    77  59  53 SE9G16    30.06S
MOUNT IDA      CLOUDY    73  56  54 SE8       30.05S
6HR MIN TEMP:  72; 6HR MAX TEMP:  78;

$$

ARZ009-017-025-026-028-060700-
NORTHEAST ARKANSAS

CITY           SKY/WX    TMP DP  RH WIND       PRES   REMARKS
CORNING          N/A     63  55  77 SE7       30.13F
JONESBORO      CLEAR     60  53  77 SE3       30.13F
6HR MIN TEMP:  60; 6HR MAX TEMP:  81;

NEWPORT        CLEAR     68  54  60 SE12      30.13F
6HR MIN TEMP:  68; 6HR MAX TEMP:  82;

WALNUT RIDGE   CLEAR     64  50  59 SE6       30.12F
6HR MIN TEMP:  64; 6HR MAX TEMP:  82;

BLYTHEVILLE    CLEAR     67  54  63 S7        30.15F
6HR MIN TEMP:  66; 6HR MAX TEMP:  82;

$$

ARZ022-023-033-042-044-060700-
CENTRAL ARKANSAS

CITY           SKY/WX    TMP DP  RH WIND       PRES   REMARKS
LITTLE ROCK    PTCLDY    68  55  63 SE3       30.10S
6HR MIN TEMP:  68; 6HR MAX TEMP:  81;

N LITTLE ROCK    N/A     70  58  66 SE7       30.10S
6HR MIN TEMP:  69; 6HR MAX TEMP:  81;

JACKSONVILLE   CLEAR     67  56  67 E3        30.10S
6HR MIN TEMP:  66; 6HR MAX TEMP:  80; 6HR PCP: TRACE;

SEARCY         CLEAR     66  55  67 SE5       30.12F
6HR MIN TEMP:  65; 6HR MAX TEMP:  80;

HOT SPRINGS    CLOUDY    71  57  61 E7        30.08F
6HR MIN TEMP:  69; 6HR MAX TEMP:  81;

RUSSELLVILLE   CLEAR     68  55  63 VRB5      30.07S
6HR MIN TEMP:  68; 6HR MAX TEMP:  79;

CLINTON        FAIR      57  57 100 CALM      30.12S
$$

ARZ036-060700-
EAST ARKANSAS

CITY           SKY/WX    TMP DP  RH WIND       PRES   REMARKS
WEST MEMPHIS   CLEAR     66  56  70 SE3       30.13F
6HR MIN TEMP:  63; 6HR MAX TEMP:  79;

$$

ARZ050-053-066-070-073-060700-
SOUTHWEST ARKANSAS

CITY           SKY/WX    TMP DP  RH WIND       PRES   REMARKS
ARKADELPHIA    FAIR      65  64  96 CALM      30.08S
6HR MIN TEMP:  65; 6HR MAX TEMP:  82;

CAMDEN         CLEAR     66  57  72 CALM      30.08S
TEXARKANA      CLEAR     70  63  78 S9        30.05S
6HR MIN TEMP:  70; 6HR MAX TEMP:  78;

EL DORADO      CLEAR     68  59  73 SE5       30.09S
6HR MIN TEMP:  68; 6HR MAX TEMP:  80;

DE QUEEN       MOCLDY    72  61  68 SE5       30.02S
6HR MIN TEMP:  68; 6HR MAX TEMP:  79;

$$

ARZ056-057-069-060700-
SOUTHEAST ARKANSAS

CITY           SKY/WX    TMP DP  RH WIND       PRES   REMARKS
PINE BLUFF     CLEAR     65  57  75 SE5       30.10F
6HR MIN TEMP:  64; 6HR MAX TEMP:  80;

STUTTGART      CLEAR     70  54  56 SE8       30.11F
6HR MIN TEMP:  70; 6HR MAX TEMP:  82;

MONTICELLO     CLEAR     67  58  72 SE3       30.10F
6HR MIN TEMP:  65; 6HR MAX TEMP:  81;


$$




USA.gov is the U.S. government's official web portal to all federal, state and local government web resources and services.